Regional Weather Roundup
Issued by NWS Green Bay, WI

Home | Current Version | Previous Version | Graphics & Text | Print | Product List | Glossary Off
Versions: 1 2 3 4 5 6 7 8 9 10 11 12 13 14 15 16 17 18 19 20 21 22 23 24 25 26 27 28 29 30 31 32 33 34 35 36 37 38 39 40 41 42 43 44 45 46 47 48 49 50

000
ASUS43 KGRB 310959
RWRGRB

NORTH-CENTRAL AND NORTHEAST WISCONSIN REGIONAL WEATHER ROUNDUP
NATIONAL WEATHER SERVICE GREEN BAY WI
400 AM CST SAT JAN 31 2015

WIZ005-009-010>012-018-019-311100-
NORTH CENTRAL WISCONSIN

CITY           SKY/WX    TMP DP  RH WIND       PRES   REMARKS
IRONWOOD       CLOUDY    21  18  86 W8        30.05F
MANITOWISH WTR NOT AVBL
ARBOR VITAE    NOT AVBL
EAGLE RIVER    NOT AVBL
LAND O LAKES   NOT AVBL
RHINELANDER    CLOUDY    17   9  70 SW7       30.07F WCI   8
PHILLIPS       NOT AVBL
ANTIGO         NOT AVBL
TOMAHAWK       NOT AVBL
MERRILL        NOT AVBL
$$

WIZ013-073-311100-
NORTHEAST WISCONSIN

CITY           SKY/WX    TMP DP  RH WIND       PRES   REMARKS
IRON MOUNTAIN  CLOUDY    17   8  67 S3        30.09S
MARINETTE      CLOUDY    21  10  63 SW9       30.15S
$$

WIZ017-030-035>037-045-311100-
CENTRAL WISCONSIN

CITY           SKY/WX    TMP DP  RH WIND       PRES   REMARKS
MEDFORD        NOT AVBL
WAUSAU         CLOUDY    18   9  68 SW6       30.10F WCI  10
MOSINEE        NOT AVBL
MARSHFIELD     CLOUDY    18  10  71 S7        30.11F WCI   9
WISC RAPIDS    CLOUDY    19  10  68 CALM      30.15F
STEVENS POINT  NOT AVBL
WAUPACA        NOT AVBL
SHAWANO        NOT AVBL
CLINTONVILLE   NOT AVBL
$$

WIZ038-039-048-051-311100-
FOX VALLEY

CITY           SKY/WX    TMP DP  RH WIND       PRES   REMARKS
NWS GREEN BAY  CLOUDY    20  13  74 S8        30.18S
APPLETON       NOT AVBL
OSHKOSH        CLOUDY    20  13  74 S8        30.17F
FOND DU LAC    CLOUDY    21  14  74 S7        30.18F
$$

WIZ022-050-052-311100-
EAST CENTRAL WISCONSIN

CITY           SKY/WX    TMP DP  RH WIND       PRES   REMARKS
STURGEON BAY   CLOUDY    19  10  68 SW9       30.17F WCI   9
MANITOWOC      NOT AVBL
SHEBOYGAN      MOCLDY    17  12  80 SW7       30.19F WCI   8
$$

LMZ563-521-522-541>543-311100-
LAKESHORE

STATION/POSITION TIME  TEMP    WIND        PRES    VSBY  WAVE
                       AIR SEA DIR/SP/G                  HT/PER
                 (UTC) (F)     (DEG/KT/KT) (MB)    (MI)  (FT/S)
SHEBOYGAN LKSHOR 0900   22     200/  7/  9 1024.8F
KEWAUNEE LKSHORE 0900   22     220/  8/ 11 1021.3F
NORTHPORT PIER   0900   20     190/  3/  6 1022.0S
SISTER BAY LKSHO 0900   20        CALM       N/A
CHAMBERS ISLAND  0900   20     180/  5/  8 1021.7F
MENOMINEE LKSHOR 0900   21     200/  6     1022.0F
$$


USA.gov is the U.S. government's official web portal to all federal, state and local government web resources and services.